Regional Weather Roundup
Issued by NWS

Home | Current Version | Previous Version | Text Only | Print | Product List | Glossary Off
Versions: 1 2 3 4 5 6 7 8 9 10 11 12 13 14 15 16 17 18 19 20 21 22 23 24 25 26 27 28 29 30 31 32 33 34 35 36 37 38 39 40 41 42 43 44 45 46 47 48 49 50

000
ASUS45 KCYS 210710
RWRWY

WYOMING REGIONAL WEATHER ROUNDUP
NATIONAL WEATHER SERVICE CHEYENNE WY
100 AM MDT SUN SEP 21 2014

NOTE:  "FAIR" INDICATES FEW OR NO CLOUDS BELOW 12,000 FEET
WITH NO SIGNIFICANT WEATHER AND/OR OBSTRUCTIONS TO VISIBILITY.

WYZ001-210800-
YELLOWSTONE NATIONAL PARK

CITY           SKY/WX    TMP DP  RH WIND       PRES   REMARKS
LK YELLOWSTONE   N/A     37  34  89 CALM      30.43F
W YELLOWSTONE  NOT AVBL

$$
WYZ002>013-054>058-071-098>099-210800-
NORTHERN WYOMING

CITY           SKY/WX    TMP DP  RH WIND       PRES   REMARKS
JACKSON        CLEAR     55  41  58 N16       30.32R
CODY             N/A    N/A N/A N/A MISG        N/A
GREYBULL       CLEAR     54  41  61 CALM      30.27R
WORLAND        CLEAR     48  41  76 CALM      30.28R
SHERIDAN       CLEAR     47  40  76 CALM      30.32R
BUFFALO        CLEAR     50  39  66 SW7       30.37S
GILLETTE       CLEAR     43  38  82 S7        30.34R
HULETT         FAIR      46  36  66 MISG      30.35
NEWCASTLE      FAIR      46  36  66 CALM      30.35

$$
WYZ014>020-022>026-101>103-210800-
CENTRAL WYOMING

CITY           SKY/WX    TMP DP  RH WIND       PRES   REMARKS
BIG PINEY      CLEAR     49  32  52 N7        30.36R
PINEDALE       SUNNY     41  34  75 NW6       30.37R
DUBOIS         FAIR      45  36  70 CALM      30.43S
LANDER         CLEAR     54  40  59 W8        30.34R
RIVERTON       CLEAR     57  37  47 E9        30.35R
CASPER         CLEAR     51  33  50 NE9       30.35S
DOUGLAS        CLEAR     48  36  63 CALM      30.37S

$$
WYZ021-027>030-104>119-210800-
SOUTHERN WYOMING

CITY           SKY/WX    TMP DP  RH WIND       PRES   REMARKS
EVANSTON       PTCLDY    59  29  31 NE8       30.29F
KEMMERER       MOSUNNY   55  34  44 NE13      30.34S
FORT BRIDGER   FAIR      56  33  41 NE5       30.33F
ROCK SPRINGS   CLEAR     52  37  56 CALM      30.33R
DIXON          FAIR      53  39  57 CALM      30.31S
RAWLINS        CLEAR     54  37  52 NE17      30.37S
SARATOGA       FAIR      50  41  71 CALM      30.36S
LARAMIE        CLEAR     49  35  58 S6        30.42R
CHEYENNE       CLOUDY    56  38  50 CALM      30.41R
TORRINGTON     CLOUDY    56  41  57 NW5       30.33R
PINE BLUFFS    FAIR      55  39  54 E3        30.37R

$$



USA.gov is the U.S. government's official web portal to all federal, state and local government web resources and services.